Location: Bittkow
(50.3000°N, 19.0000°E)
Time: 13:57:19
(UTC+00:00)

Meteor 1-14 Rocket - Pass Details

Date: 19 September 2020
Orbit: 833 x 919 km, 81.3° (Epoch: 27 October)

Event Time Altitude Azimuth Distance (km) Brightness Sun altitude
Rises 02:39:20 0° 344° (NNW) 3,453 7.5 -17.3°
Reaches altitude 10° 02:41:50 10° 339° (NNW) 2,500 6.7 -16.9°
Maximum altitude 02:47:16 50° 266° (W) 1,064 4.3 -16.1°
Drops below altitude 10° 02:52:36 10° 192° (SSW) 2,445 6.3 -15.4°
Sets 02:55:02 0° 187° (S) 3,370 7.1 -15.0°
